SCP
0 0 0 0 0 0 0 0 0 0 0 0 0 0 0 0 0 0 0 0 0 0 0 0 0 0 0 0 0 0 0 0 0 0 0 0 0 0 0 0 0 0 0 0
0 0 0 0 0 0 0 0 0 0 0 0 0 0 0 0 0 0 0 0 0 0 0 0 0 0 0 0 0 0 0 0 0 0 0 0 0 0 0 0 0 0 0 0
0 0 0 0 0 0 0 0 0 0 0 0 0 0 0 0 0 0 0 0 0 0 0 0 0 0 0 0 0 0 0 0 0 0 0 0 0 0 0 0 0 0 0 0
0 0 0 0 0 0 0 0 0 0 0 0 0 0 0 0 0 0 0 0 0 0 0 0 0 0 0 0 0 0 0 0 0 0 0 0 0 0 0 0 0 0 0 0
0 0 0 0 0 0 0 0 0 0 0 0 0 0 0 0 0 0 0 0 0 0 0 0 0 0 0 0 0 0 0 0 0 0 0 0 0 0 0 0 0 0 0 0
0 0 0 0 0 0 0 0 0 0 0 0 0 0 0 0 0 0 0 0 0 0 0 0 0 0 0 0 0 0 0 0 0 0 0 0 0 0 0 0 0 0 0 0
0 0 0 0 0 0 0 0 0 0 0 0 0 0 0 0 0 0 0 0 0 0 0 0 0 0 0 0 0 0 0 0 0 0 0 0 0 0 0 0 0 0 0 0
0 0 0 0 0 0 0 0 0 0 0 0 0 0 0 0 0 0 0 0 0 0 0 0 0 0 0 0 0 0 0 0 0 0 0 0 0 0 0 0 0 0 0 0
0 0 0 0 0 0 0 0 0 0 0 0 0 0 0 0 0 0 0 0 0 0 0 0 0 0 0 0 0 0 0 0 0 0 0 0 0 0 0 0 0 0 0 0
0 0 0 0 0 0 0 0 0 0 0 0 0 0 0 0 0 0 0 0 0 0 0 0 0 0 0 0 0 0 0 0 0 0 0 0 0 0 0 0 0 0 0 0
0 0 0 0 0 0 0 0 0 0 0 0 0 0 0 0 0 0 0 0 0 0 0 0 0 0 0 0 0 0 0 0 0 0 0 0 0 0 0 0 0 0 0 0
0 0 0 0 0 0 0 0 0 0 0 0 0 0 0 0 0 0 0 0 0 0 0 0 0 0 0 0 0 0 0 0 0 0 0 0 0 0 0 0 0 0 0 0
0 0 0 0 -0 0 0 0 0 0 0 0 0 0 0 0 0 0 0 0 0 0 0 0 0 0 0 0 0 0 0 0 0 0 0 0 0 0 0 0 0 0 0 0
0 0 0 0 0 0 0 0 0 0 0 0 0 0 0 0 0 0 0 0 0 0 0 0 0 0 0 0 0 0 0 0 0 0 0 0 0 0 0 0 0 0 0 0
0 0 0 0 0 0 0 0 0 0 0 0 0 0 0 0 0 0 0 0 0 0 0 0 0 0 0 0 0 0 0 0 0 0 0 0 0 0 0 0 0 0 0 0
0 0 0 0 0 0 0 0 0 0 0 0 0 0 0 0 0 0 0 0 0 0 0 0 0 0 0 0 0 0 0 0 0 0 0 0 0 0 0 0 0 0 0 0
0 0 0 0 0 0 0 0 0 0 0 0 0 0 0 0 0 0 0 0 0 0 0 0 0 0 0 0 0 0 0 0 0 0 0 0 0 0 0 0 0 0 0 0
0 0 0 0 0 0 0 0 0 0 0 0 0 0 0 0 0 0 0 0 0 0 0 0 0 0 0 0 0 0 0 0 0 0 0 0 0 0 0 0 0 0 0 0
0 0 0 0 0 0 0 0 0 0 0 0 0 0 0 0 0 0 0 0 0 0 0 0 0 0 0 0 0 0 0 0 0 0 0 0 0 0 0 0 0 0 0 0
0 0 0 0 0 0 0 0 0 0 0 0 0 0 0 0 0 0 0 0 0 0 0 0 0 0 0 0 0 0 0 0 0 0 0 0 0 0 0 0 0 0 0 0
0 0 0 0 0 0 0 0 0 0 0 0 0 0 0 0 0 0 0 0 0 0 0 0 0 0 0 0 0 0 0 0 0 0 0 0 0 0 0 0 0 0 0 0
0 0 0 0 0 0 0 0 0 0 0 0 0 0 0 0 0 0 0 0 0 0 0 0 0 0 0 0 0 0 0 0 0 0 0 0 0 0 0 0 0 0 0 0
0 0 0 0 0 0 0 0 0 0 0 0 0 0 0 0 0 0 0 0 0 0 0 0 0 0 0 0 0 0 0 0 0 0 0 0 0 0 0 0 0 0 0 0
0 0 0 0 0 0 0 0 0 0 0 0 0 0 0 0 0 0 0 0 0 0 0 0 0 0 0 0 0 0 0 0 0 0 0 0 0 0 0 0 0 0 0 0
0 0 0 0 0 0 0 0 0 0 0 0 0 0 0 0 0 0 0 0 0 0 0 0 0 0 0 0 0 0 0 0 0 0 0 0 0 0 0 0 0 0 0 0
0 0 0 0 0 0 0 0 0 0 0 0 0 0 0 0 0 0 0 0 0 0 0 0 0 0 0 0 0 0 0 0 0 0 0 0 0 0 0 0 0 0 0 0
0 0 0 0 0 0 0 0 0 0 0 0 0 0 0 0 0 0 0 0 0 0 0 0 0 0 0 0 0 0 0 0 0 0 0 0 0 0 0 0 -0 -0 -0 -0
Wind_Speed_500mb
49 45 33 17 37 47 56 71 34 57 47 31 28 30 44 46 42 46 54 62 71 75 76 77 78 77 69 66 63 60 55 55 55 53 52 49 47 42 37 32 29 27 28 29
47 45 45 42 37 49 61 61 60 58 55 5 43 40 33 42 45 49 53 61 69 75 76 77 71 77 72 66 64 59 59 59 59 59 57 54 51 48 44 42 39 38 36 36
30 26 36 15 77 44 49 59 46 55 55 13 14 22 34 32 37 45 54 59 64 76 80 77 68 73 68 57 58 58 60 62 62 62 58 56 56 54 53 51 50 47 44 44
16 9 24 43 10 40 64 57 45 38 3 5 18 23 29 19 34 41 43 44 52 59 58 66 66 59 49 49 52 57 60 64 62 61 60 59 60 60 59 58 58 55 53 51
13 21 21 33 9 16 22 44 43 28 20 22 28 8 20 37 45 48 46 45 43 44 48 48 48 47 45 46 49 49 51 55 56 59 61 61 63 63 63 63 63 61 58 56
7 13 20 7 13 4 13 22 15 36 30 22 38 12 14 49 43 43 36 34 35 39 42 40 40 39 40 41 41 41 42 43 45 49 55 59 59 62 65 65 64 63 61 58
27 12 9 4 11 15 16 4 7 38 42 39 14 14 16 37 42 37 36 37 36 35 33 30 29 30 34 38 40 38 32 31 37 43 48 50 54 59 64 65 65 64 61 59
11 10 20 16 10 16 0 9 23 31 41 41 25 22 26 36 43 43 42 38 33 28 24 24 28 35 40 42 36 33 29 35 40 45 47 48 50 55 61 64 64 62 61 62
11 2 4 23 6 8 11 15 12 22 34 38 36 33 40 46 45 42 37 33 30 27 24 28 30 37 41 36 43 38 34 38 45 50 53 54 55 55 58 62 64 63 63 64
8 5 3 4 14 14 13 18 23 25 31 35 45 43 44 43 42 40 36 31 27 25 27 31 37 43 48 48 49 49 43 46 50 54 60 61 60 58 59 62 64 65 65 66
6 10 15 20 23 31 34 26 23 26 35 41 42 45 42 43 41 35 28 28 28 30 33 36 40 48 52 60 61 61 56 54 56 58 62 62 60 61 61 62 63 65 68 69
5 30 17 36 47 47 46 46 40 41 41 38 34 36 40 43 41 36 34 34 35 36 38 38 42 46 51 61 67 65 65 67 64 60 57 57 61 59 62 65 68 69 70 73
11 44 23 33 51 58 61 55 42 40 34 30 32 36 38 42 44 41 42 42 42 40 39 43 46 46 51 54 57 59 61 59 55 53 55 54 56 61 64 65 69 70 73 73
25 46 16 19 14 28 40 41 43 39 33 30 29 33 38 40 40 43 44 42 42 44 45 46 48 49 49 51 54 53 52 51 48 48 48 51 54 56 61 65 68 73 72 71
25 20 12 21 20 11 12 19 35 44 38 34 38 46 45 44 44 44 45 46 45 45 45 46 47 49 49 47 43 41 40 40 40 44 46 50 54 58 62 66 70 74 75 73
28 27 20 13 13 16 21 24 30 37 40 42 43 50 49 44 44 47 47 47 44 43 43 44 45 43 40 37 35 33 34 36 39 44 48 52 54 58 61 65 69 71 72 72
16 30 34 36 33 32 36 36 42 43 40 43 41 43 47 45 46 50 49 46 43 41 40 39 38 36 33 32 32 33 34 37 40 43 47 51 55 57 60 64 67 69 70 67
32 29 22 24 27 30 31 30 31 33 35 36 37 41 47 51 52 50 47 42 38 36 36 34 33 32 32 31 31 31 32 35 39 41 44 47 50 53 55 59 62 65 65 61
24 30 36 39 36 35 35 36 37 39 43 45 46 46 44 44 45 43 40 37 34 34 32 31 29 27 27 27 27 29 31 33 35 37 40 43 46 49 52 53 54 54 55 56
6 12 18 22 26 29 31 34 37 36 34 33 32 33 35 35 34 33 34 34 33 29 27 26 25 25 24 25 26 27 28 29 31 35 38 40 42 43 44 45 46 46 46 47
3 3 6 10 13 16 19 21 24 26 25 25 25 26 27 27 27 26 27 28 26 25 23 22 22 22 23 24 26 26 26 28 31 33 34 35 37 39 41 43 43 43 42 42
9 6 3 2 4 5 7 9 10 11 13 14 15 16 18 20 22 24 24 21 21 20 19 19 19 21 23 24 25 25 27 29 31 32 34 35 37 39 40 41 42 41 40 40
14 12 10 8 6 7 7 7 6 6 8 12 14 17 20 21 22 21 20 18 18 17 16 18 21 22 23 23 26 28 29 31 31 32 33 34 36 38 39 41 41 40 40 39
15 14 13 13 12 12 10 11 12 14 13 15 17 17 17 17 17 15 13 12 13 14 16 19 20 21 22 25 27 30 31 31 31 32 33 35 37 38 39 41 43 41 41 41
18 14 11 11 11 14 13 12 10 10 10 9 10 10 10 10 10 12 13 13 15 16 17 18 19 22 25 27 28 28 29 29 30 33 34 35 36 36 37 40 42 41 41 41
18 15 14 13 12 10 9 8 7 6 6 6 7 7 8 9 9 10 13 14 15 16 17 18 20 22 23 24 25 26 28 30 32 34 36 37 38 38 39 41 42 41 41 41
12 12 12 10 8 7 5 3 2 3 5 7 8 8 8 10 11 13 14 15 15 16 16 16 18 19 21 24 26 29 31 32 34 36 37 38 38 38 40 41 41 40 40 40
Wind_Direction_500mb
241 255 267 213 214 206 211 227 216 246 237 228 194 197 193 187 182 182 188 193 200 204 204 208 212 215 216 220 223 229 228 230 233 232 232 232 236 240 242 250 262 273 284 294
254 243 244 242 238 217 216 229 233 248 254 230 186 194 186 183 178 189 195 207 212 207 206 205 209 215 219 222 228 234 237 238 236 234 234 238 241 244 248 253 262 268 276 285
245 225 245 275 236 227 229 225 226 234 246 169 162 181 194 180 195 213 218 216 215 215 212 212 206 218 222 228 235 242 243 241 238 238 242 243 245 249 252 258 262 269 275 280
248 117 217 238 250 228 233 238 228 244 70 157 166 162 197 208 228 229 227 225 224 216 212 220 220 223 229 231 240 244 245 244 242 243 245 245 248 253 257 260 267 270 272 276
217 217 290 271 179 178 181 244 228 222 138 137 120 127 253 247 238 234 230 225 224 223 216 213 211 218 225 231 238 243 246 244 244 244 246 249 254 259 262 264 268 269 272 275
153 224 231 329 127 179 107 256 196 183 175 153 146 198 229 213 200 199 201 201 195 190 197 204 206 215 226 234 239 245 249 247 244 247 250 254 261 264 264 265 266 268 271 274
221 228 273 132 151 152 170 278 99 161 160 153 160 203 171 179 184 187 186 186 183 186 195 208 221 232 236 238 240 241 236 239 248 251 255 259 262 263 264 264 264 268 271 274
208 224 242 139 120 189 153 99 151 168 175 176 170 160 156 168 174 173 173 176 186 198 206 219 228 231 231 232 232 223 245 253 251 252 253 256 262 265 263 261 264 266 270 275
207 205 324 167 60 163 126 139 153 181 196 199 186 178 171 168 169 173 180 189 198 202 207 216 228 235 237 242 227 235 257 256 254 252 253 258 261 262 262 263 264 268 272 278
154 134 146 93 135 155 187 220 226 205 191 191 187 179 172 173 178 187 193 197 204 215 228 234 242 248 243 235 235 242 254 256 257 259 260 260 259 262 265 267 268 270 273 276
91 121 141 202 208 199 215 204 195 202 199 190 187 184 189 192 196 197 207 220 232 244 247 247 253 255 249 238 240 244 252 259 264 264 261 260 262 265 269 270 270 273 275 276
183 160 161 195 190 194 213 224 228 197 183 189 197 203 207 208 209 213 224 234 242 244 248 251 253 252 245 241 246 253 259 264 266 264 260 260 262 264 268 269 269 269 271 274
155 163 175 200 210 218 226 228 214 201 201 206 209 213 215 217 221 232 236 239 242 247 250 248 251 254 250 248 251 257 261 261 257 254 253 256 258 264 269 272 273 273 275 276
154 177 181 193 215 225 228 227 218 224 224 233 230 221 222 227 231 234 238 242 243 243 244 246 249 253 255 255 257 256 251 249 247 251 253 262 267 268 270 272 274 277 278 278
180 176 190 221 197 184 232 237 235 235 240 246 237 230 231 235 240 241 240 239 240 242 244 246 250 253 255 254 251 246 244 246 252 259 264 266 269 272 275 276 278 281 282 281
209 216 227 224 217 228 237 243 250 252 254 251 243 238 237 240 242 241 241 241 242 247 248 248 248 247 244 242 240 241 247 256 262 266 271 276 278 280 281 282 283 283 283 284
214 225 236 242 244 248 251 253 253 257 258 250 251 244 236 241 247 245 242 244 246 246 245 242 238 234 235 237 243 252 259 265 271 277 280 282 285 286 287 287 287 285 283 281
226 233 240 255 265 270 268 264 264 265 256 254 253 248 246 248 252 247 242 241 242 240 236 233 232 235 241 248 257 264 270 276 280 283 288 292 295 296 295 293 291 288 287 285
242 241 242 246 249 249 253 255 249 248 248 250 249 246 247 247 243 240 237 235 234 232 229 230 234 242 251 257 263 270 275 282 289 296 300 302 304 305 304 301 299 296 294 290
239 231 230 234 239 244 246 245 247 247 247 248 248 245 243 240 236 231 227 224 225 227 228 233 240 247 254 264 272 280 287 293 299 302 305 306 308 310 310 309 305 301 296 293
349 293 245 232 229 233 236 236 238 238 239 239 237 235 231 224 216 214 214 216 219 223 225 231 243 254 263 272 282 289 297 299 299 300 301 304 307 308 308 307 306 304 299 294
69 75 85 149 183 174 195 209 218 227 232 233 226 217 211 204 200 202 210 216 218 222 231 242 254 267 279 285 289 293 294 295 295 297 300 303 305 305 305 306 305 301 299 296
71 80 88 100 105 105 113 130 143 161 180 176 177 180 182 187 191 195 207 216 224 233 246 266 277 279 281 281 285 288 289 290 293 296 299 301 302 303 304 305 302 300 300 298
73 81 91 104 112 114 123 126 141 148 157 165 171 176 179 186 194 206 218 228 245 264 269 271 274 277 279 282 285 286 288 289 291 293 296 297 299 299 301 301 300 300 299 297
62 72 89 100 106 103 108 116 122 134 147 161 170 177 186 199 219 228 238 248 255 260 268 274 277 281 283 284 285 287 288 291 293 295 297 298 299 300 302 302 300 301 300 299
72 72 68 68 74 87 105 123 137 157 172 189 209 224 235 246 253 252 257 261 264 268 273 277 279 279 281 283 286 289 293 295 296 296 296 298 298 300 301 300 300 301 300 300
71 77 80 81 92 100 107 121 181 244 254 257 263 270 280 281 277 276 276 276 276 277 279 280 279 280 283 287 291 293 294 296 297 297 298 299 300 302 302 302 302 303 303 303
Wind_Speed_850mb
49 45 33 17 37 47 56 71 34 57 47 31 28 30 44 46 42 46 54 62 71 75 76 77 78 77 69 66 63 60 55 55 55 53 52 49 47 42 37 32 29 27 28 29
47 45 45 42 37 49 61 61 60 58 55 5 43 40 33 42 45 49 53 61 69 75 76 77 71 77 72 66 64 59 59 59 59 59 57 54 51 48 44 42 39 38 36 36
30 26 36 15 77 44 49 59 46 55 55 13 14 22 34 32 37 45 54 59 64 76 80 77 68 73 68 57 58 58 60 62 62 62 58 56 56 54 53 51 50 47 44 44
16 9 24 43 10 40 64 57 45 38 3 5 18 23 29 19 34 41 43 44 52 59 58 66 66 59 49 49 52 57 60 64 62 61 60 59 60 60 59 58 58 55 53 51
13 21 21 33 9 16 22 44 43 28 20 22 28 8 20 37 45 48 46 45 43 44 48 48 48 47 45 46 49 49 51 55 56 59 61 61 63 63 63 63 63 61 58 56
7 13 20 7 13 4 13 22 15 36 30 22 38 12 14 49 43 43 36 34 35 39 42 40 40 39 40 41 41 41 42 43 45 49 55 59 59 62 65 65 64 63 61 58
27 12 9 4 11 15 16 4 7 38 42 39 14 14 16 37 42 37 36 37 36 35 33 30 29 30 34 38 40 38 32 31 37 43 48 50 54 59 64 65 65 64 61 59
11 10 20 16 10 16 0 9 23 31 41 41 25 22 26 36 43 43 42 38 33 28 24 24 28 35 40 42 36 33 29 35 40 45 47 48 50 55 61 64 64 62 61 62
11 2 4 23 6 8 11 15 12 22 34 38 36 33 40 46 45 42 37 33 30 27 24 28 30 37 41 36 43 38 34 38 45 50 53 54 55 55 58 62 64 63 63 64
8 5 3 4 14 14 13 18 23 25 31 35 45 43 44 43 42 40 36 31 27 25 27 31 37 43 48 48 49 49 43 46 50 54 60 61 60 58 59 62 64 65 65 66
6 10 15 20 23 31 34 26 23 26 35 41 42 45 42 43 41 35 28 28 28 30 33 36 40 48 52 60 61 61 56 54 56 58 62 62 60 61 61 62 63 65 68 69
5 30 17 36 47 47 46 46 40 41 41 38 34 36 40 43 41 36 34 34 35 36 38 38 42 46 51 61 67 65 65 67 64 60 57 57 61 59 62 65 68 69 70 73
11 44 23 33 51 58 61 55 42 40 34 30 32 36 38 42 44 41 42 42 42 40 39 43 46 46 51 54 57 59 61 59 55 53 55 54 56 61 64 65 69 70 73 73
25 46 16 19 14 28 40 41 43 39 33 30 29 33 38 40 40 43 44 42 42 44 45 46 48 49 49 51 54 53 52 51 48 48 48 51 54 56 61 65 68 73 72 71
25 20 12 21 20 11 12 19 35 44 38 34 38 46 45 44 44 44 45 46 45 45 45 46 47 49 49 47 43 41 40 40 40 44 46 50 54 58 62 66 70 74 75 73
28 27 20 13 13 16 21 24 30 37 40 42 43 50 49 44 44 47 47 47 44 43 43 44 45 43 40 37 35 33 34 36 39 44 48 52 54 58 61 65 69 71 72 72
16 30 34 36 33 32 36 36 42 43 40 43 41 43 47 45 46 50 49 46 43 41 40 39 38 36 33 32 32 33 34 37 40 43 47 51 55 57 60 64 67 69 70 67
32 29 22 24 27 30 31 30 31 33 35 36 37 41 47 51 52 50 47 42 38 36 36 34 33 32 32 31 31 31 32 35 39 41 44 47 50 53 55 59 62 65 65 61
24 30 36 39 36 35 35 36 37 39 43 45 46 46 44 44 45 43 40 37 34 34 32 31 29 27 27 27 27 29 31 33 35 37 40 43 46 49 52 53 54 54 55 56
6 12 18 22 26 29 31 34 37 36 34 33 32 33 35 35 34 33 34 34 33 29 27 26 25 25 24 25 26 27 28 29 31 35 38 40 42 43 44 45 46 46 46 47
3 3 6 10 13 16 19 21 24 26 25 25 25 26 27 27 27 26 27 28 26 25 23 22 22 22 23 24 26 26 26 28 31 33 34 35 37 39 41 43 43 43 42 42
9 6 3 2 4 5 7 9 10 11 13 14 15 16 18 20 22 24 24 21 21 20 19 19 19 21 23 24 25 25 27 29 31 32 34 35 37 39 40 41 42 41 40 40
14 12 10 8 6 7 7 7 6 6 8 12 14 17 20 21 22 21 20 18 18 17 16 18 21 22 23 23 26 28 29 31 31 32 33 34 36 38 39 41 41 40 40 39
15 14 13 13 12 12 10 11 12 14 13 15 17 17 17 17 17 15 13 12 13 14 16 19 20 21 22 25 27 30 31 31 31 32 33 35 37 38 39 41 43 41 41 41
18 14 11 11 11 14 13 12 10 10 10 9 10 10 10 10 10 12 13 13 15 16 17 18 19 22 25 27 28 28 29 29 30 33 34 35 36 36 37 40 42 41 41 41
18 15 14 13 12 10 9 8 7 6 6 6 7 7 8 9 9 10 13 14 15 16 17 18 20 22 23 24 25 26 28 30 32 34 36 37 38 38 39 41 42 41 41 41
12 12 12 10 8 7 5 3 2 3 5 7 8 8 8 10 11 13 14 15 15 16 16 16 18 19 21 24 26 29 31 32 34 36 37 38 38 38 40 41 41 40 40 40
Wind_Direction_850mb
241 255 267 213 214 206 211 227 216 246 237 228 194 197 193 187 182 182 188 193 200 204 204 208 212 215 216 220 223 229 228 230 233 232 232 232 236 240 242 250 262 273 284 294
254 243 244 242 238 217 216 229 233 248 254 230 186 194 186 183 178 189 195 207 212 207 206 205 209 215 219 222 228 234 237 238 236 234 234 238 241 244 248 253 262 268 276 285
245 225 245 275 236 227 229 225 226 234 246 169 162 181 194 180 195 213 218 216 215 215 212 212 206 218 222 228 235 242 243 241 238 238 242 243 245 249 252 258 262 269 275 280
248 117 217 238 250 228 233 238 228 244 70 157 166 162 197 208 228 229 227 225 224 216 212 220 220 223 229 231 240 244 245 244 242 243 245 245 248 253 257 260 267 270 272 276
217 217 290 271 179 178 181 244 228 222 138 137 120 127 253 247 238 234 230 225 224 223 216 213 211 218 225 231 238 243 246 244 244 244 246 249 254 259 262 264 268 269 272 275
153 224 231 329 127 179 107 256 196 183 175 153 146 198 229 213 200 199 201 201 195 190 197 204 206 215 226 234 239 245 249 247 244 247 250 254 261 264 264 265 266 268 271 274
221 228 273 132 151 152 170 278 99 161 160 153 160 203 171 179 184 187 186 186 183 186 195 208 221 232 236 238 240 241 236 239 248 251 255 259 262 263 264 264 264 268 271 274
208 224 242 139 120 189 153 99 151 168 175 176 170 160 156 168 174 173 173 176 186 198 206 219 228 231 231 232 232 223 245 253 251 252 253 256 262 265 263 261 264 266 270 275
207 205 324 167 60 163 126 139 153 181 196 199 186 178 171 168 169 173 180 189 198 202 207 216 228 235 237 242 227 235 257 256 254 252 253 258 261 262 262 263 264 268 272 278
154 134 146 93 135 155 187 220 226 205 191 191 187 179 172 173 178 187 193 197 204 215 228 234 242 248 243 235 235 242 254 256 257 259 260 260 259 262 265 267 268 270 273 276
91 121 141 202 208 199 215 204 195 202 199 190 187 184 189 192 196 197 207 220 232 244 247 247 253 255 249 238 240 244 252 259 264 264 261 260 262 265 269 270 270 273 275 276
183 160 161 195 190 194 213 224 228 197 183 189 197 203 207 208 209 213 224 234 242 244 248 251 253 252 245 241 246 253 259 264 266 264 260 260 262 264 268 269 269 269 271 274
155 163 175 200 210 218 226 228 214 201 201 206 209 213 215 217 221 232 236 239 242 247 250 248 251 254 250 248 251 257 261 261 257 254 253 256 258 264 269 272 273 273 275 276
154 177 181 193 215 225 228 227 218 224 224 233 230 221 222 227 231 234 238 242 243 243 244 246 249 253 255 255 257 256 251 249 247 251 253 262 267 268 270 272 274 277 278 278
180 176 190 221 197 184 232 237 235 235 240 246 237 230 231 235 240 241 240 239 240 242 244 246 250 253 255 254 251 246 244 246 252 259 264 266 269 272 275 276 278 281 282 281
209 216 227 224 217 228 237 243 250 252 254 251 243 238 237 240 242 241 241 241 242 247 248 248 248 247 244 242 240 241 247 256 262 266 271 276 278 280 281 282 283 283 283 284
214 225 236 242 244 248 251 253 253 257 258 250 251 244 236 241 247 245 242 244 246 246 245 242 238 234 235 237 243 252 259 265 271 277 280 282 285 286 287 287 287 285 283 281
226 233 240 255 265 270 268 264 264 265 256 254 253 248 246 248 252 247 242 241 242 240 236 233 232 235 241 248 257 264 270 276 280 283 288 292 295 296 295 293 291 288 287 285
242 241 242 246 249 249 253 255 249 248 248 250 249 246 247 247 243 240 237 235 234 232 229 230 234 242 251 257 263 270 275 282 289 296 300 302 304 305 304 301 299 296 294 290
239 231 230 234 239 244 246 245 247 247 247 248 248 245 243 240 236 231 227 224 225 227 228 233 240 247 254 264 272 280 287 293 299 302 305 306 308 310 310 309 305 301 296 293
349 293 245 232 229 233 236 236 238 238 239 239 237 235 231 224 216 214 214 216 219 223 225 231 243 254 263 272 282 289 297 299 299 300 301 304 307 308 308 307 306 304 299 294
69 75 85 149 183 174 195 209 218 227 232 233 226 217 211 204 200 202 210 216 218 222 231 242 254 267 279 285 289 293 294 295 295 297 300 303 305 305 305 306 305 301 299 296
71 80 88 100 105 105 113 130 143 161 180 176 177 180 182 187 191 195 207 216 224 233 246 266 277 279 281 281 285 288 289 290 293 296 299 301 302 303 304 305 302 300 300 298
73 81 91 104 112 114 123 126 141 148 157 165 171 176 179 186 194 206 218 228 245 264 269 271 274 277 279 282 285 286 288 289 291 293 296 297 299 299 301 301 300 300 299 297
62 72 89 100 106 103 108 116 122 134 147 161 170 177 186 199 219 228 238 248 255 260 268 274 277 281 283 284 285 287 288 291 293 295 297 298 299 300 302 302 300 301 300 299
72 72 68 68 74 87 105 123 137 157 172 189 209 224 235 246 253 252 257 261 264 268 273 277 279 279 281 283 286 289 293 295 296 296 296 298 298 300 301 300 300 301 300 300
71 77 80 81 92 100 107 121 181 244 254 257 263 270 280 281 277 276 276 276 276 277 279 280 279 280 283 287 291 293 294 296 297 297 298 299 300 302 302 302 302 303 303 303